This is the latest recevied weather packets stored in our database for station/object WB5HZM-3. If no packets are shown the sender has not sent any weather packets the latest 10 day(s).
| Time | Temp. | Humidity | Pressure | Rain* | Wind** | Luminosity | Snow |
|---|---|---|---|---|---|---|---|
| 1777903410 | 21.11° C | 66% | 1017.3 hPa | 0 mm | - | - | - |
| 1777902806 | 20.56° C | 68% | 1017.4 hPa | 0 mm | - | - | - |
| 1777902202 | 20.56° C | 68% | 1017.2 hPa | 0 mm | - | - | - |
| 1777901602 | 20° C | 71% | 1017.2 hPa | 0 mm | - | - | - |
| 1777900998 | 19.44° C | 71% | 1017.3 hPa | 0 mm | - | - | - |
| 1777900413 | 18.89° C | 71% | 1017.1 hPa | 0 mm | - | - | - |
| 1777899807 | 18.89° C | 72% | 1016.9 hPa | 0 mm | - | - | - |
| 1777899207 | 18.33° C | 72% | 1017 hPa | 0 mm | - | - | - |
| 1777898603 | 18.33° C | 72% | 1017.1 hPa | 0 mm | - | - | - |
| 1777897999 | 18.33° C | 73% | 1017 hPa | 0 mm | - | - | - |
| 1777897399 | 17.78° C | 73% | 1016.9 hPa | 0 mm | - | - | - |
| 1777896814 | 17.78° C | 73% | 1016.9 hPa | 0 mm | - | - | - |
| 1777896210 | 17.22° C | 74% | 1016.8 hPa | 0 mm | - | - | - |
| 1777895608 | 17.22° C | 74% | 1016.7 hPa | 0 mm | - | - | - |
| 1777895004 | 16.67° C | 75% | 1016.6 hPa | 0 mm | - | - | - |
| 1777894400 | 16.67° C | 76% | 1016.5 hPa | 0 mm | - | - | - |
| 1777893796 | 16.11° C | 76% | 1016.4 hPa | 0 mm | - | - | - |
| 1777893215 | 16.11° C | 76% | 1016.6 hPa | 0 mm | - | - | - |
| 1777892610 | 16.11° C | 76% | 1016.6 hPa | 0 mm | - | - | - |
| 1777892005 | 16.11° C | 76% | 1016.6 hPa | 0 mm | - | - | - |
| 1777891404 | 15.56° C | 76% | 1016.7 hPa | 0 mm | - | - | - |
| 1777890800 | 15.56° C | 76% | 1016.9 hPa | 0 mm | - | - | - |
| 1777890215 | 16.11° C | 76% | 1016.9 hPa | 0 mm | - | - | - |
| 1777889611 | 16.11° C | 76% | 1016.7 hPa | 0 mm | - | - | - |
| 1777889010 | 16.11° C | 75% | 1017 hPa | 0 mm | - | - | - |
* Rain latest hour (hover to see other rain measurements)
** Current wind speed in m/s (hover to see current wind gust speed)